EW6167 Weather Reports


Display with metric or nautical units.
time (UTC)temp
F
wind
direction
speed
MPH
gust
MPH
rain 1hr
in
rain 24hr
in
rain mn
in
humidity
%
barometer
mb
20260506121539 20 181 6.0 0.0 0.00 0.00 0.00 83 1019.9
20260506121059 20 182 6.0 0.0 0.00 0.00 0.00 83 1019.7
20260506120511 20 190 6.0 0.0 0.00 0.00 0.00 83 1019.8
20260506120033 20 193 5.0 0.0 0.00 0.00 0.00 83 1019.8
20260506115553 20 196 5.0 0.0 0.00 0.00 0.00 82 1019.8
20260506115008 20 192 5.0 0.0 0.00 0.00 0.00 83 1019.7
20260506114531 19 196 5.0 0.0 0.00 0.00 0.00 83 1019.8
20260506114053 19 189 4.0 0.0 0.00 0.00 0.00 82 1019.7
20260506113507 19 189 4.0 0.0 0.00 0.00 0.00 83 1019.9
20260506113025 19 189 5.0 0.0 0.00 0.00 0.00 83 1019.8
20260506112548 20 189 6.0 0.0 0.00 0.00 0.00 84 1019.8
20260506112006 19 190 6.0 0.0 0.00 0.00 0.00 83 1019.8
20260506111524 19 198 6.0 0.0 0.00 0.00 0.00 83 1019.7
20260506111046 19 203 6.0 0.0 0.00 0.00 0.00 83 1019.7
20260506110503 18 191 5.0 0.0 0.00 0.00 0.00 83 1019.8
20260506110021 18 184 5.0 0.0 0.00 0.00 0.00 81 1019.8
20260506105542 18 184 5.0 0.0 0.00 0.00 0.00 81 1019.8
20260506105103 19 184 5.0 0.0 0.00 0.00 0.00 82 1019.7
20260506104517 19 181 5.0 0.0 0.00 0.00 0.00 83 1019.7
20260506104034 18 187 5.0 0.0 0.00 0.00 0.00 83 1019.7
20260506103554 18 187 5.0 0.0 0.00 0.00 0.00 84 1019.6
20260506103008 17 184 4.0 0.0 0.00 0.00 0.00 82 1019.6
20260506102528 17 184 4.0 0.0 0.00 0.00 0.00 81 1019.6
20260506102045 18 184 5.0 0.0 0.00 0.00 0.00 80 1019.6
20260506101503 19 184 5.0 0.0 0.00 0.00 0.00 80 1019.6
20260506101020 19 193 5.0 0.0 0.00 0.00 0.00 82 1019.4
20260506100542 19 194 5.0 0.0 0.00 0.00 0.00 83 1019.5
20260506100107 19 192 5.0 0.0 0.00 0.00 0.00 83 1019.4
20260506095518 19 190 5.0 0.0 0.00 0.00 0.00 81 1019.4
20260506095042 19 190 5.0 0.0 0.00 0.00 0.00 82 1019.4
20260506094615 19 189 5.0 0.0 0.00 0.00 0.00 83 1019.3
20260506094016 18 190 4.0 0.0 0.00 0.00 0.00 81 1019.5
20260506093539 18 190 4.0 0.0 0.00 0.00 0.00 80 1019.3
20260506093054 19 192 4.0 0.0 0.00 0.00 0.00 80 1019.4
20260506092505 20 192 4.0 0.0 0.00 0.00 0.00 80 1019.4
20260506092023 20 192 4.0 0.0 0.00 0.00 0.00 79 1019.5
20260506091543 21 192 4.0 0.0 0.00 0.00 0.00 79 1019.6
20260506091100 21 192 4.0 0.0 0.00 0.00 0.00 80 1019.5
20260506090511 21 195 5.0 0.0 0.00 0.00 0.00 79 1019.5
20260506090030 21 200 5.0 0.0 0.00 0.00 0.00 79 1019.5
20260506085547 21 199 5.0 0.0 0.00 0.00 0.00 79 1019.3
20260506085003 21 183 5.0 0.0 0.00 0.00 0.00 80 1019.4
20260506084532 21 183 5.0 0.0 0.00 0.00 0.00 77 1019.3
20260506084044 21 183 5.0 0.0 0.00 0.00 0.00 75 1019.3
20260506083604 22 183 5.0 0.0 0.00 0.00 0.00 77 1019.3
20260506083024 22 184 5.0 0.0 0.00 0.00 0.00 76 1019.2
20260506082541 22 183 5.0 0.0 0.00 0.00 0.00 76 1019.2
20260506082059 23 190 5.0 0.0 0.00 0.00 0.00 73 1019.2
20260506081516 24 190 4.0 0.0 0.00 0.00 0.00 72 1019.2
20260506081033 25 180 3.0 0.0 0.00 0.00 0.00 72 1019.3
20260506080551 25 43 3.0 0.0 0.00 0.00 0.00 71 1019.1
20260506073108 26 43 3.0 0.0 0.00 0.00 0.00 71 1019.1
20260506072522 26 43 3.0 0.0 0.00 0.00 0.00 70 1019.0
20260506072038 27 43 3.0 0.0 0.00 0.00 0.00 70 1019.0
20260506071601 27 43 4.0 0.0 0.00 0.00 0.00 71 1019.1
20260506071010 26 43 4.0 0.0 0.00 0.00 0.00 72 1019.0
20260506070529 26 43 3.0 0.0 0.00 0.00 0.00 72 1019.0
20260506062004 26 39 4.0 0.0 0.00 0.00 0.00 72 1018.6
20260506061527 27 37 4.0 0.0 0.00 0.00 0.00 70 1018.5
20260506061042 27 37 5.0 0.0 0.00 0.00 0.00 70 1018.4
20260506060601 28 39 5.0 0.0 0.00 0.00 0.00 68 1018.3
20260506051010 33 323 12.0 0.0 0.00 0.00 0.00 62 1017.4
20260506050537 33 322 11.0 0.0 0.00 0.00 0.00 62 1017.3
20260506045036 33 321 12.0 0.0 0.00 0.00 0.00 64 1017.4
20260506044603 33 315 13.0 0.0 0.00 0.00 0.00 64 1017.4
20260506044017 33 325 13.0 0.0 0.00 0.00 0.00 64 1017.4
20260506043537 33 319 13.0 0.0 0.00 0.00 0.00 64 1017.4
20260506043059 34 315 14.0 0.0 0.00 0.00 0.00 64 1017.4
20260506042509 34 323 15.0 0.0 0.00 0.00 0.00 64 1017.4
20260506042035 34 304 15.0 0.0 0.00 0.00 0.00 64 1017.4
20260506041556 34 328 15.0 0.0 0.00 0.00 0.00 65 1017.4
20260506041007 34 305 16.0 0.0 0.00 0.00 0.00 65 1017.1
20260506040527 34 313 17.0 0.0 0.00 0.00 0.00 66 1017.2
20260506040042 34 322 16.0 0.0 0.00 0.00 0.00 66 1017.1
20260506035502 34 317 15.0 0.0 0.00 0.00 0.00 67 1017.1
20260506035027 34 326 16.0 0.0 0.00 0.00 0.00 67 1017.2
20260506034551 34 312 17.0 0.0 0.00 0.00 0.00 67 1017.0
20260506034003 34 316 18.0 0.0 0.00 0.00 0.00 67 1016.9
20260506033521 34 317 19.0 0.0 0.00 0.00 0.00 67 1016.8
20260506033042 34 329 20.0 0.0 0.00 0.00 0.00 68 1016.7
20260506032502 34 319 21.0 0.0 0.00 0.00 0.00 66 1016.6
20260506032022 35 320 22.0 0.0 0.00 0.00 0.00 65 1016.5
20260506031540 35 328 21.0 0.0 0.00 0.00 0.00 66 1016.4
20260506031102 35 327 20.0 0.0 0.00 0.00 0.00 67 1016.3
20260506030518 34 320 18.0 0.0 0.00 0.00 0.00 67 1016.2
20260506030035 34 302 19.0 0.0 0.00 0.00 0.00 67 1016.0
20260506025554 34 311 19.0 0.0 0.00 0.00 0.00 68 1016.0
20260506025008 35 298 20.0 0.0 0.00 0.00 0.00 67 1015.7
20260506024527 35 317 20.0 0.0 0.00 0.00 0.00 67 1015.4
20260506024046 35 327 19.0 0.0 0.00 0.00 0.00 67 1015.4
20260506023507 35 328 21.0 0.0 0.00 0.00 0.00 65 1015.3
20260506023026 35 325 20.0 0.0 0.00 0.00 0.00 65 1015.3
20260506022544 35 339 21.0 0.0 0.00 0.00 0.00 66 1015.0
20260506022006 36 338 22.0 0.0 0.00 0.00 0.00 66 1014.8
20260506021526 36 331 21.0 0.0 0.00 0.00 0.00 63 1014.7
20260506021043 36 338 21.0 0.0 0.00 0.00 0.00 62 1014.7
20260506020601 37 334 23.0 0.0 0.00 0.00 0.00 61 1014.5
20260506020013 37 323 25.0 0.0 0.00 0.00 0.00 60 1014.4
20260506015536 37 328 25.0 0.0 0.00 0.00 0.00 59 1014.3
20260506015054 37 329 25.0 0.0 0.00 0.00 0.00 59 1014.3
20260506014507 37 323 24.0 0.0 0.00 0.00 0.00 58 1014.1
20260506014031 37 323 24.0 0.0 0.00 0.00 0.00 57 1013.8
20260506013550 38 325 24.0 0.0 0.00 0.00 0.00 57 1013.8
20260506013002 38 302 24.0 0.0 0.00 0.00 0.00 55 1013.9
20260506012519 38 331 24.0 0.0 0.00 0.00 0.00 52 1013.8
20260506012036 39 331 23.0 0.0 0.00 0.00 0.00 51 1013.7
20260506011620 39 329 22.0 0.0 0.00 0.00 0.00 51 1013.7
20260506011005 39 325 22.0 0.0 0.00 0.00 0.00 49 1013.7
20260506010524 39 314 21.0 0.0 0.00 0.00 0.00 48 1013.6
20260506010043 40 320 20.0 0.0 0.00 0.00 0.00 48 1013.4
20260506005503 39 321 20.0 0.0 0.00 0.00 0.00 51 1013.6
20260506005020 39 311 22.0 0.0 0.00 0.00 0.00 52 1013.2
20260506004543 40 336 23.0 0.0 0.00 0.00 0.00 49 1012.9
20260506004054 40 312 23.0 0.0 0.00 0.00 0.00 49 1012.8
20260506003505 40 314 23.0 0.0 0.00 0.00 0.00 47 1012.7
20260506003022 41 332 22.0 0.0 0.00 0.00 0.00 47 1012.7
20260506002540 41 336 21.0 0.0 0.00 0.00 0.00 47 1012.4
20260506002105 41 323 22.0 0.0 0.00 0.00 0.00 48 1012.6
20260506001518 41 318 24.0 0.0 0.00 0.00 0.00 49 1012.4
20260506001041 41 321 24.0 0.0 0.00 0.00 0.00 48 1012.4
20260506000600 41 316 23.0 0.0 0.00 0.00 0.00 48 1012.3
20260506000010 41 331 23.0 0.0 0.00 0.00 0.00 47 1012.2
20260505235526 42 304 23.0 0.0 0.00 0.00 0.00 47 1012.2
20260505235055 42 325 23.0 0.0 0.00 0.00 0.00 47 1012.2
20260505234514 42 331 22.0 0.0 0.00 0.00 0.00 44 1012.1
20260505234038 42 300 21.0 0.0 0.00 0.00 0.00 47 1012.2
20260505233555 42 323 21.0 0.0 0.00 0.00 0.00 46 1012.2
20260505233017 42 328 21.0 0.0 0.00 0.00 0.00 46 1012.3
20260505232531 43 333 21.0 0.0 0.00 0.00 0.00 44 1012.2
20260505232050 43 333 22.0 0.0 0.00 0.00 0.00 44 1012.0
20260505231505 43 329 22.0 0.0 0.00 0.00 0.00 47 1012.2
20260505231030 43 325 22.0 0.0 0.00 0.00 0.00 46 1012.0
20260505230555 43 331 22.0 0.0 0.00 0.00 0.00 47 1011.9
20260505230012 43 319 23.0 0.0 0.00 0.00 0.00 45 1011.9
20260505225529 43 325 23.0 0.0 0.00 0.00 0.00 46 1012.0
20260505225053 43 331 24.0 0.0 0.00 0.00 0.00 45 1011.9
20260505224510 44 328 22.0 0.0 0.00 0.00 0.00 43 1011.7
20260505224025 44 325 20.0 0.0 0.00 0.00 0.00 42 1011.4
20260505223546 44 311 21.0 0.0 0.00 0.00 0.00 44 1011.8
20260505223010 44 318 20.0 0.0 0.00 0.00 0.00 44 1011.9
20260505222528 44 310 20.0 0.0 0.00 0.00 0.00 43 1011.8
20260505222049 44 340 20.0 0.0 0.00 0.00 0.00 41 1011.8
20260505221512 44 327 20.0 0.0 0.00 0.00 0.00 42 1011.8
20260505221030 44 336 19.0 0.0 0.00 0.00 0.00 40 1012.0
20260505220549 44 325 19.0 0.0 0.00 0.00 0.00 39 1011.8
20260505220013 44 341 19.0 0.0 0.00 0.00 0.00 38 1011.9
20260505215528 44 340 19.0 0.0 0.00 0.00 0.00 38 1011.9
20260505215053 44 331 20.0 0.0 0.00 0.00 0.00 39 1011.8
20260505214511 44 311 20.0 0.0 0.00 0.00 0.00 38 1011.7
20260505214026 44 304 19.0 0.0 0.00 0.00 0.00 38 1011.9
20260505213544 45 322 19.0 0.0 0.00 0.00 0.00 39 1011.8
20260505213003 45 342 18.0 0.0 0.00 0.00 0.00 37 1011.8
20260505212523 45 333 18.0 0.0 0.00 0.00 0.00 37 1011.9
20260505212042 45 319 18.0 0.0 0.00 0.00 0.00 37 1011.7
20260505211509 45 331 18.0 0.0 0.00 0.00 0.00 35 1011.8
20260505211025 45 316 17.0 0.0 0.00 0.00 0.00 36 1011.7
20260505210547 45 332 16.0 0.0 0.00 0.00 0.00 36 1011.9
20260505205522 45 300 16.0 0.0 0.00 0.00 0.00 38 1011.9
20260505205037 45 317 17.0 0.0 0.00 0.00 0.00 38 1012.0
20260505204600 45 321 18.0 0.0 0.00 0.00 0.00 39 1011.9
20260505204012 46 312 18.0 0.0 0.00 0.00 0.00 37 1011.9
20260505203530 46 317 17.0 0.0 0.00 0.00 0.00 41 1011.8
20260505203052 45 301 17.0 0.0 0.00 0.00 0.00 39 1012.0
20260505202515 45 333 18.0 0.0 0.00 0.00 0.00 42 1012.3
20260505202032 44 323 21.0 0.0 0.00 0.00 0.00 39 1012.2
20260505201552 45 323 20.0 0.0 0.00 0.00 0.00 39 1012.2
20260505201004 45 315 19.0 0.0 0.00 0.00 0.00 40 1012.3
20260505200521 44 315 18.0 0.0 0.00 0.00 0.00 41 1012.2
20260505200037 43 306 19.0 0.0 0.00 0.00 0.00 42 1012.2
20260505195554 44 303 19.0 0.0 0.00 0.00 0.00 41 1012.3
20260505195009 44 321 19.0 0.0 0.00 0.00 0.00 40 1012.2
20260505194529 44 317 19.0 0.0 0.00 0.00 0.00 40 1012.2
20260505194048 44 312 19.0 0.0 0.00 0.00 0.00 39 1012.1
20260505193502 44 329 19.0 0.0 0.00 0.00 0.00 41 1012.0
20260505193031 45 319 19.0 0.0 0.00 0.00 0.00 40 1012.0
20260505192544 44 315 20.0 0.0 0.00 0.00 0.00 41 1012.0
20260505192104 44 351 21.0 0.0 0.00 0.00 0.00 41 1012.0
20260505191522 44 321 21.0 0.0 0.00 0.00 0.00 41 1011.8
20260505191037 44 332 21.0 0.0 0.00 0.00 0.00 41 1011.8
20260505190603 45 322 21.0 0.0 0.00 0.00 0.00 42 1011.7
20260505190016 45 331 21.0 0.0 0.00 0.00 0.00 40 1011.8
20260505185535 45 336 19.0 0.0 0.00 0.00 0.00 40 1011.7
20260505185100 45 325 17.0 0.0 0.00 0.00 0.00 39 1011.6
20260505184515 45 343 17.0 0.0 0.00 0.00 0.00 38 1011.5
20260505184041 46 344 18.0 0.0 0.00 0.00 0.00 38 1011.5
20260505183604 46 329 17.0 0.0 0.00 0.00 0.00 38 1011.6
20260505183024 47 327 17.0 0.0 0.00 0.00 0.00 38 1011.5
20260505182541 46 355 17.0 0.0 0.00 0.00 0.00 38 1011.5
20260505182101 47 338 17.0 0.0 0.00 0.00 0.00 38 1011.5
20260505181516 46 323 18.0 0.0 0.00 0.00 0.00 38 1011.5
20260505181036 47 341 18.0 0.0 0.00 0.00 0.00 36 1011.4
20260505180556 46 355 17.0 0.0 0.00 0.00 0.00 37 1011.4
20260505180008 46 306 18.0 0.0 0.00 0.00 0.00 36 1011.4
20260505175527 46 321 16.0 0.0 0.00 0.00 0.00 38 1011.3
20260505175044 46 323 15.0 0.0 0.00 0.00 0.00 39 1011.3
20260505174559 45 332 14.0 0.0 0.00 0.00 0.00 39 1011.5
20260505174014 45 328 15.0 0.0 0.00 0.00 0.00 38 1011.7
20260505173531 45 338 14.0 0.0 0.00 0.00 0.00 39 1011.7
20260505173048 45 325 13.0 0.0 0.00 0.00 0.00 40 1011.7
20260505172507 45 327 13.0 0.0 0.00 0.00 0.00 40 1011.6
20260505172018 45 314 12.0 0.0 0.00 0.00 0.00 41 1011.7
20260505171536 44 350 11.0 0.0 0.00 0.00 0.00 42 1011.8
20260505171055 44 312 11.0 0.0 0.00 0.00 0.00 42 1011.8
20260505170512 43 24 10.0 0.0 0.00 0.00 0.00 42 1011.9
20260505170030 43 355 10.0 0.0 0.00 0.00 0.00 44 1012.0
20260505165543 43 355 11.0 0.0 0.00 0.00 0.00 43 1012.1
20260505165105 42 9 11.0 0.0 0.00 0.00 0.00 44 1012.0
20260505164518 42 355 13.0 0.0 0.00 0.00 0.00 45 1012.0
20260505164036 43 30 13.0 0.0 0.00 0.00 0.00 45 1012.0
20260505163554 42 5 12.0 0.0 0.00 0.00 0.00 44 1012.0
20260505163016 42 360 12.0 0.0 0.00 0.00 0.00 45 1012.0
20260505162534 43 355 11.0 0.0 0.00 0.00 0.00 45 1012.0
20260505162053 42 333 11.0 0.0 0.00 0.00 0.00 45 1011.9
20260505161510 42 5 10.0 0.0 0.00 0.00 0.00 48 1012.1
20260505161026 42 355 11.0 0.0 0.00 0.00 0.00 49 1012.0
20260505160546 41 355 11.0 0.0 0.00 0.00 0.00 49 1012.1
20260505153009 39 346 11.0 0.0 0.00 0.00 0.00 55 1012.2
20260505152535 39 333 11.0 0.0 0.00 0.00 0.00 54 1012.2
20260505152055 39 329 10.0 0.0 0.00 0.00 0.00 56 1012.3
20260505151510 38 337 11.0 0.0 0.00 0.00 0.00 55 1012.3
20260505151030 38 344 12.0 0.0 0.00 0.00 0.00 55 1012.4
20260505150551 38 334 12.0 0.0 0.00 0.00 0.00 55 1012.5
20260505140535 36 355 4.0 0.0 0.00 0.00 0.00 60 1012.5
20260505125010 29 5 2.0 0.0 0.00 0.00 0.00 73 1012.1
20260505124541 29 5 1.0 0.0 0.00 0.00 0.00 73 1012.0
20260505124049 29 5 1.0 0.0 0.00 0.00 0.00 73 1012.0
20260505123505 29 5 1.0 0.0 0.00 0.00 0.00 73 1012.0
20260505123023 28 5 1.0 0.0 0.00 0.00 0.00 74 1012.0
20260505122544 28 5 1.0 0.0 0.00 0.00 0.00 74 1012.0
20260505122059 28 5 1.0 0.0 0.00 0.00 0.00 75 1012.0